[[{"header":{"parameterUnit":"m.s-1","parameterCategory":1,"la1":30.2991,"la2":30.254,"lo1":-89.0895,"lo2":-89.0444,"dy":0.0017,"dx":0.0017,"nx":28,"ny":28,"refTime":"2024-03-10T09:00:00:Z","depth":0,"parameterNumber":2,"parameterNumberName":"U-component_of_WINDS"},"data":[0,0,0,0,0,0,0,0,0,0,0,0,0,0,0,0,0,0,0,0,0,0,0,0,0,0,0,0,0,0,0,0,0,0,0,0,0,0,0,0,0,0,0,0,0,0,0,0,0,0,0,0,0,0,0,0,0,0,0.6648,0.6648,0,0.6633,0.6633,0.6632,0.6634,0.6634,0.6634,0.6634,0.6617,0.6617,0.6616,0,0,0,0,0,0,0,0,0,0,0,0,0,0.6679,0.6678,0.6648,0.6648,0.6648,0.6633,0.6633,0.6632,0.6634,0.6634,0.6634,0.6634,0.6618,0.6617,0.6616,0,0,0,0,0,0,0,0,0,0,0,0,0,0.6665,0.6678,0.6648,0.6647,0.6646,0.6633,0.6633,0.6632,0.6634,0.6634,0.6634,0.6635,0.6618,0.6617,0.6616,0.6603,0,0,0.6613,0.6612,0,0,0,0,0,0,0,0,0.6665,0.6663,0.6647,0.6647,0.6646,0.6636,0.6637,0.6622,0.6633,0.6638,0.6634,0.6635,0.6623,0.6622,0.6618,0.6602,0.6601,0.6613,0.6612,0.6612,0.6611,0,0,0,0,0,0,0,0.6666,0.6664,0.6642,0.6647,0.6646,0.6647,0.6645,0.6634,0.6629,0.6638,0.6638,0.6636,0.6623,0.6619,0.6618,0.6601,0.6613,0.6612,0.6611,0.6611,0.6576,0.6575,0,0,0,0,0,0,0.6668,0.6665,0.6642,0.6642,0.6657,0.6646,0.6644,0.6639,0.6629,0.6628,0.6636,0.6636,0.662,0.6619,0.6617,0.6602,0.6612,0.6611,0.661,0.6576,0.6576,0.6575,0,0,0,0,0,0,0.6668,0.6666,0.6643,0.6653,0.665,0.6645,0.6639,0.6638,0.6634,0.6628,0.6626,0.6633,0.6621,0.6618,0.6607,0.6601,0.661,0.6609,0.6576,0.6576,0.6575,0.6571,0,0,0,0,0,0,0.6669,0.6666,0.666,0.6653,0.665,0.6633,0.6638,0.6638,0.6633,0.6633,0.6624,0.6623,0.6621,0.6608,0.6606,0.66,0.6609,0.6577,0.6576,0.6576,0.6572,0.6571,0.657,0,0,0,0,0,0.667,0.6659,0.666,0.6657,0.6643,0.6632,0.6631,0.6628,0.6632,0.6627,0.6623,0.6623,0.6603,0.6607,0.6604,0.6598,0.6577,0.6576,0.6576,0.6572,0.6571,0.657,0,0,0,0,0,0,0.6664,0.6658,0.6659,0.6645,0.664,0.6633,0.6626,0.6627,0.6619,0.662,0.6617,0.6615,0.6604,0.66,0.6605,0.6586,0.659,0.6589,0.6589,0.6587,0.6586,0.6587,0.6608,0,0,0,0,0,0.6662,0.6654,0.6649,0.6637,0.6634,0.6631,0.6626,0.6625,0.6619,0.6616,0.6612,0.6605,0.6598,0.6593,0.6585,0.6572,0.6571,0.6567,0.6566,0.6565,0.6563,0.6558,0.6556,0.6573,0.6573,0.6573,0,0,0.6655,0.6651,0.6646,0.6636,0.6631,0.6624,0.6628,0.6619,0.6614,0.6615,0.6604,0.6601,0.6594,0.6582,0.6576,0.6578,0.6559,0.6564,0.6563,0.6562,0.6557,0.6555,0.6554,0.6572,0.6572,0.6572,0,0,0.664,0.6636,0.6627,0.6623,0.6617,0.6615,0.6613,0.6607,0.6605,0.6594,0.6595,0.6589,0.6575,0.6571,0.6567,0.6554,0.6554,0.6551,0.6545,0.654,0.6539,0.6538,0.6534,0.6532,0.655,0.655,0.655,0,0.6633,0.6622,0.6621,0.6613,0.6609,0.6611,0.6602,0.6598,0.659,0.6587,0.659,0.6574,0.657,0.6558,0.6555,0.6551,0.6549,0.6552,0.6539,0.6538,0.6537,0.6533,0.6531,0.655,0.655,0.655,0.655,0,0.6614,0.6606,0.6599,0.6592,0.6588,0.6579,0.6578,0.6573,0.6574,0.6572,0.6562,0.6558,0.655,0.6547,0.6547,0.6536,0.6537,0.654,0.6544,0.6535,0.6531,0.653,0.6549,0.655,0.655,0.655,0,0,0.6591,0.6587,0.6584,0.6582,0.6577,0.6571,0.6564,0.6557,0.6554,0.6549,0.6543,0.6533,0.6536,0.6531,0.6531,0.6526,0.6518,0.6529,0.6529,0.6528,0.6507,0.6505,0.6503,0.6519,0.6519,0.6518,0.6507,0,0.6576,0.6562,0.6563,0.6551,0.6544,0.6548,0.6542,0.6538,0.6537,0.6532,0.6531,0.6524,0.6528,0.6526,0.6522,0.652,0.6513,0.6521,0.6513,0.6513,0.6514,0.6501,0.6498,0.6488,0.6506,0.6506,0.6506,0,0.6555,0.6551,0.6538,0.6536,0.6533,0.6528,0.6523,0.6518,0.6515,0.6515,0.6512,0.6513,0.6506,0.6512,0.6503,0.6508,0.6505,0.6504,0.6504,0.6502,0.6508,0.6499,0.6484,0.6483,0.6503,0.6503,0.6504,0,0.6541,0.6532,0.6523,0.6522,0.6519,0.6515,0.6514,0.6511,0.6508,0.6505,0.6503,0.6498,0.6496,0.6492,0.6493,0.6497,0.6484,0.649,0.6484,0.6484,0.648,0.648,0.6465,0.648,0.648,0.648,0.648,0,0.6522,0.6514,0.6517,0.6512,0.6504,0.6506,0.6498,0.6497,0.6496,0.6491,0.6494,0.649,0.6491,0.6487,0.6487,0.6481,0.6479,0.6479,0.6479,0.6479,0.6479,0.6476,0.6477,0.6479,0.6479,0.6479,0.6479,0,0.6504,0.6506,0.6497,0.6497,0.6496,0.649,0.649,0.6486,0.6486,0.648,0.6479,0.648,0.6476,0.6476,0.6471,0.6472,0.6463,0.6464,0.6464,0.6465,0.6459,0.646,0.6441,0.6439,0.6455,0.6455,0.6455,0,0.6492,0.6486,0.6486,0.6484,0.6483,0.6478,0.6476,0.6479,0.6476,0.6474,0.647,0.6467,0.6463,0.6457,0.6457,0.6453,0.6454,0.6448,0.6454,0.6454,0.6455,0.6455,0.6455,0.6447,0.6446,0.6446,0.6446,0,0.6471,0.6472,0.6469,0.6467,0.6464,0.6462,0.646,0.6458,0.6461,0.6458,0.6455,0.6453,0.6449,0.6445,0.6443,0.6442,0.6445,0.6445,0.6444,0.6442,0.6443,0.6443,0.6461,0.6445,0.6445,0.6445,0.6445,0.6445,0.6455,0.6451,0.6451,0.6447,0.6447,0.6446,0.6443,0.6444,0.6441,0.6438,0.6441,0.6437,0.6436,0.6434,0.6433,0.643,0.6433,0.643,0.643,0.6429,0.6429,0.6444,0.643,0.643,0.643,0.643,0.643,0,0.6434,0.6435,0.6432,0.6431,0.6429,0.6433,0.6432,0.643,0.6427,0.6427,0.6425,0.6421,0.6419,0.642,0.6418,0.6416,0.6418,0.6416,0.6415,0.6415,0.6426,0.6428,0.6415,0.6415,0.6415,0.6415,0.6415,0.6415,0.6422,0.6416,0.6419,0.6413,0.6414,0.6411,0.641,0.641,0.641,0.6407,0.6405,0.6406,0.6407,0.6406,0.6405,0.6405,0.6404,0.6402,0.6403,0.6413,0.6414,0.6416,0.6417,0.6402,0.6402,0.6392,0.6392,0.6392]},{"header":{"parameterUnit":"m.s-1","parameterCategory":1,"la1":30.2991,"la2":30.254,"lo1":-89.0895,"lo2":-89.0444,"dy":0.0017,"dx":0.0017,"nx":28,"ny":28,"refTime":"2024-03-10T09:00:00:Z","depth":0,"parameterNumber":3,"parameterNumberName":"V-component_of_WINDS"},"data":[0,0,0,0,0,0,0,0,0,0,0,0,0,0,0,0,0,0,0,0,0,0,0,0,0,0,0,0,0,0,0,0,0,0,0,0,0,0,0,0,0,0,0,0,0,0,0,0,0,0,0,0,0,0,0,0,0,0,-7.6413,-7.6414,0,-7.6581,-7.6583,-7.6585,-7.6518,-7.6514,-7.651,-7.6506,-7.6673,-7.6681,-7.6689,0,0,0,0,0,0,0,0,0,0,0,0,0,-7.6027,-7.6035,-7.6412,-7.6414,-7.6417,-7.6581,-7.6583,-7.6585,-7.6519,-7.6514,-7.6509,-7.6505,-7.667,-7.668,-7.6689,0,0,0,0,0,0,0,0,0,0,0,0,0,-7.6195,-7.6037,-7.6412,-7.6403,-7.6404,-7.658,-7.6583,-7.6586,-7.652,-7.6514,-7.6508,-7.6502,-7.6667,-7.6679,-7.6691,-7.6883,0,0,-7.6728,-7.6733,0,0,0,0,0,0,0,0,-7.6185,-7.6209,-7.6402,-7.6404,-7.6406,-7.6523,-7.6508,-7.6685,-7.6521,-7.6476,-7.6506,-7.6499,-7.6627,-7.6642,-7.6686,-7.6891,-7.6898,-7.6729,-7.6736,-7.6741,-7.6745,0,0,0,0,0,0,0,-7.6174,-7.6201,-7.6479,-7.6405,-7.6407,-7.6389,-7.6406,-7.6541,-7.6582,-7.6479,-7.6475,-7.6496,-7.6627,-7.6675,-7.669,-7.6901,-7.6729,-7.6739,-7.6747,-7.6752,-7.7271,-7.7277,0,0,0,0,0,0,-7.6163,-7.6192,-7.6473,-7.6484,-7.6279,-7.6401,-7.642,-7.6491,-7.6581,-7.6589,-7.6501,-7.6492,-7.6657,-7.6676,-7.6695,-7.6927,-7.6741,-7.6753,-7.676,-7.7265,-7.7273,-7.728,0,0,0,0,0,0,-7.6155,-7.6188,-7.6467,-7.6337,-7.6371,-7.6414,-7.6494,-7.6497,-7.6545,-7.6597,-7.6603,-7.6543,-7.6653,-7.6678,-7.6838,-7.6932,-7.6758,-7.6769,-7.7257,-7.7267,-7.7276,-7.7392,0,0,0,0,0,0,-7.6144,-7.6186,-7.6261,-7.6339,-7.6378,-7.6608,-7.6499,-7.6505,-7.6567,-7.6558,-7.6638,-7.6646,-7.6651,-7.682,-7.685,-7.6946,-7.6779,-7.7249,-7.7262,-7.7273,-7.738,-7.7405,-7.7426,0,0,0,0,0,-7.613,-7.6286,-7.6265,-7.63,-7.6473,-7.6614,-7.6636,-7.664,-7.6575,-7.665,-7.6683,-7.6643,-7.6917,-7.6837,-7.687,-7.6971,-7.7243,-7.7258,-7.7272,-7.737,-7.74,-7.7425,0,0,0,0,0,0,-7.6215,-7.6296,-7.6274,-7.646,-7.6531,-7.6602,-7.6697,-7.6672,-7.6761,-7.6748,-7.6747,-7.6766,-7.693,-7.6966,-7.6875,-7.7161,-7.707,-7.7092,-7.7133,-7.7162,-7.7184,-7.7172,-7.6789,0,0,0,0,0,-7.6256,-7.6366,-7.6429,-7.6586,-7.6623,-7.6655,-7.6716,-7.6713,-7.6785,-7.6815,-7.6859,-7.6929,-7.7031,-7.7098,-7.7194,-7.7384,-7.7401,-7.747,-7.7493,-7.7511,-7.753,-7.7633,-7.7665,-7.7328,-7.7328,-7.7328,0,0,-7.6341,-7.6398,-7.6467,-7.6605,-7.666,-7.6771,-7.668,-7.6802,-7.6884,-7.6832,-7.6986,-7.7021,-7.7099,-7.7275,-7.7354,-7.731,-7.7627,-7.753,-7.7544,-7.7554,-7.7652,-7.7683,-7.7712,-7.7338,-7.7336,-7.7335,0,0,-7.6552,-7.6607,-7.6745,-7.6802,-7.6886,-7.6906,-7.6939,-7.7015,-7.7037,-7.7192,-7.7155,-7.7252,-7.7427,-7.7484,-7.7536,-7.777,-7.7736,-7.7801,-7.792,-7.802,-7.8047,-7.807,-7.8154,-7.8183,-7.7819,-7.782,-7.782,0,-7.6646,-7.6815,-7.6818,-7.6944,-7.7005,-7.6965,-7.7104,-7.7158,-7.7269,-7.7311,-7.726,-7.748,-7.7529,-7.7718,-7.7775,-7.7818,-7.7855,-7.7792,-7.8043,-7.8067,-7.8089,-7.8168,-7.8199,-7.7827,-7.7826,-7.7825,-7.7825,0,-7.6927,-7.7044,-7.7145,-7.7256,-7.7328,-7.7459,-7.748,-7.7553,-7.7543,-7.7568,-7.7725,-7.7783,-7.7891,-7.7935,-7.7926,-7.8122,-7.8092,-7.8042,-7.795,-7.8128,-7.8203,-7.8233,-7.7838,-7.7835,-7.7833,-7.7831,0,0,-7.7197,-7.7308,-7.7345,-7.7395,-7.7485,-7.7575,-7.7704,-7.7811,-7.7873,-7.7951,-7.8058,-7.8207,-7.8162,-7.8221,-7.8218,-7.8306,-7.8487,-7.8245,-7.8247,-7.8288,-7.8706,-7.8744,-7.8779,-7.8465,-7.847,-7.8475,-7.87,0,-7.7416,-7.7645,-7.7651,-7.7859,-7.7967,-7.793,-7.8042,-7.8109,-7.8135,-7.8228,-7.8255,-7.8362,-7.8294,-7.8329,-7.8415,-7.8447,-7.8571,-7.843,-7.8563,-7.8568,-7.8546,-7.8818,-7.8858,-7.9067,-7.8729,-7.8734,-7.8737,0,-7.7703,-7.7792,-7.8012,-7.8087,-7.8132,-7.8233,-7.8332,-7.8422,-7.8496,-7.8508,-7.8575,-7.8559,-7.8688,-7.8591,-7.8769,-7.8673,-7.8727,-7.8751,-7.8759,-7.8772,-7.8664,-7.8838,-7.9134,-7.9166,-7.8783,-7.8779,-7.8776,0,-7.7879,-7.8053,-7.8207,-7.8251,-7.8342,-7.8414,-7.8455,-7.8523,-7.8587,-7.8672,-7.8713,-7.8812,-7.8866,-7.8941,-7.8951,-7.888,-7.9129,-7.9033,-7.9142,-7.9142,-7.9197,-7.9194,-7.9506,-7.9231,-7.9231,-7.923,-7.923,0,-7.8123,-7.8259,-7.8288,-7.8383,-7.8533,-7.8538,-7.8686,-7.8721,-7.8782,-7.8881,-7.8854,-7.8948,-7.8955,-7.9051,-7.9059,-7.9204,-7.9228,-7.9241,-7.9242,-7.9244,-7.9243,-7.928,-7.9266,-7.9239,-7.9237,-7.9235,-7.9234,0,-7.8345,-7.837,-7.8536,-7.8609,-7.8631,-7.8739,-7.88,-7.889,-7.8913,-7.9039,-7.9069,-7.9104,-7.9216,-7.9233,-7.9362,-7.9368,-7.9542,-7.9527,-7.9519,-7.9517,-7.9625,-7.9615,-7.9973,-8.002,-7.9714,-7.9717,-7.9719,0,-7.85,-7.8604,-7.8689,-7.8755,-7.88,-7.8906,-7.8972,-7.898,-7.9049,-7.9141,-7.922,-7.9328,-7.9416,-7.9594,-7.963,-7.9729,-7.9717,-7.9835,-7.9731,-7.973,-7.9719,-7.9713,-7.9723,-7.9855,-7.9859,-7.9862,-7.9864,0,-7.8772,-7.878,-7.8877,-7.8979,-7.9059,-7.9138,-7.9214,-7.9268,-7.9285,-7.9364,-7.9479,-7.9547,-7.968,-7.9788,-7.9886,-7.9925,-7.9898,-7.9896,-7.9927,-7.9931,-7.9921,-7.9928,-7.9574,-7.9888,-7.9886,-7.9884,-7.9883,-7.9882,-7.8966,-7.9057,-7.9131,-7.924,-7.9298,-7.9369,-7.9457,-7.9492,-7.9589,-7.97,-7.9697,-7.9823,-7.9892,-8.0022,-8.0068,-8.0164,-8.0126,-8.017,-8.0181,-8.0192,-8.0203,-7.9906,-8.0182,-8.0181,-8.0181,-8.018,-8.018,0,-7.9237,-7.9283,-7.9384,-7.9491,-7.9576,-7.9545,-7.9626,-7.9699,-7.9811,-7.9879,-7.9967,-8.0098,-8.0202,-8.0246,-8.0348,-8.0417,-8.0407,-8.0444,-8.0439,-8.0449,-8.0231,-8.0195,-8.045,-8.045,-8.045,-8.045,-8.045,-8.045,-7.9388,-7.9541,-7.9557,-7.9737,-7.9781,-7.9906,-7.9955,-8.002,-8.0075,-8.0224,-8.0311,-8.034,-8.0399,-8.0505,-8.0598,-8.0608,-8.0647,-8.069,-8.0695,-8.0491,-8.0464,-8.0438,-8.0404,-8.0698,-8.0699,-8.0904,-8.0905,-8.0907]}]]